Precipitable_Water
0.80 0.77 0.75 0.74 0.70 0.66 0.62 0.57 0.56 0.54 0.51 0.50 0.49 0.48 0.47 0.45 0.44 0.44 0.44 0.44 0.44 0.46 0.46 0.44 0.44 0.46 0.36 0.28 0.24 0.48 0.45 0.42 0.38 0.32 0.36 0.50 0.54 0.63 0.57 0.66 0.64 0.58 0.77 0.86 0.78 0.76 0.83
0.93 0.89 0.85 0.83 0.80 0.75 0.72 0.68 0.62 0.58 0.53 0.51 0.49 0.47 0.44 0.42 0.43 0.42 0.42 0.42 0.43 0.43 0.44 0.44 0.43 0.47 0.33 0.21 0.39 0.49 0.43 0.42 0.33 0.28 0.33 0.51 0.52 0.65 0.59 0.57 0.55 0.57 0.61 0.67 0.67 0.67 0.71
1.00 0.98 0.97 0.92 0.86 0.81 0.77 0.74 0.70 0.65 0.59 0.54 0.51 0.49 0.46 0.43 0.42 0.40 0.38 0.38 0.40 0.43 0.44 0.45 0.48 0.43 0.27 0.21 0.42 0.40 0.39 0.43 0.38 0.39 0.28 0.43 0.54 0.55 0.56 0.48 0.56 0.54 0.54 0.58 0.59 0.61 0.71
1.04 1.03 1.01 0.98 0.95 0.89 0.84 0.81 0.77 0.71 0.67 0.61 0.56 0.52 0.48 0.43 0.41 0.40 0.37 0.36 0.35 0.39 0.47 0.53 0.56 0.47 0.21 0.27 0.41 0.41 0.40 0.38 0.43 0.46 0.37 0.39 0.46 0.49 0.48 0.48 0.44 0.43 0.49 0.47 0.58 0.65 0.63
1.07 1.04 1.02 1.00 0.99 0.96 0.92 0.87 0.82 0.79 0.76 0.70 0.64 0.59 0.53 0.48 0.43 0.39 0.36 0.35 0.37 0.41 0.50 0.59 0.50 0.47 0.23 0.36 0.33 0.41 0.41 0.29 0.30 0.34 0.40 0.39 0.39 0.38 0.42 0.36 0.34 0.40 0.39 0.43 0.51 0.72 0.68
1.12 1.09 1.05 1.03 1.02 1.00 0.98 0.96 0.93 0.85 0.79 0.74 0.71 0.66 0.60 0.53 0.47 0.42 0.37 0.34 0.42 0.52 0.61 0.59 0.52 0.42 0.36 0.30 0.39 0.36 0.37 0.32 0.32 0.31 0.27 0.32 0.33 0.33 0.36 0.34 0.26 0.32 0.39 0.45 0.47 0.64 0.65
1.09 1.09 1.09 1.08 1.06 1.04 1.02 0.98 0.96 0.92 0.87 0.80 0.74 0.70 0.65 0.59 0.50 0.44 0.40 0.37 0.40 0.43 0.59 0.36 0.41 0.30 0.32 0.41 0.40 0.42 0.43 0.39 0.33 0.26 0.23 0.28 0.23 0.25 0.34 0.35 0.35 0.37 0.46 0.43 0.56 0.77 0.70
1.14 1.11 1.09 1.07 1.07 1.06 1.04 1.01 0.97 0.94 0.92 0.87 0.80 0.76 0.70 0.62 0.54 0.47 0.48 0.37 0.32 0.32 0.21 0.24 0.28 0.40 0.44 0.42 0.34 0.41 0.38 0.32 0.25 0.21 0.25 0.20 0.15 0.22 0.35 0.39 0.37 0.38 0.43 0.47 0.57 0.70 0.77
1.14 1.11 1.10 1.09 1.07 1.05 1.01 0.99 0.95 0.93 0.91 0.88 0.85 0.81 0.76 0.66 0.55 0.62 0.48 0.35 0.41 0.35 0.23 0.22 0.21 0.19 0.25 0.39 0.28 0.26 0.33 0.35 0.22 0.19 0.25 0.17 0.17 0.19 0.27 0.33 0.34 0.35 0.38 0.46 0.51 0.65 0.68
1.13 1.10 1.09 1.09 1.08 1.04 0.99 0.97 0.92 0.90 0.89 0.87 0.83 0.81 0.79 0.73 0.57 0.54 0.45 0.52 0.41 0.36 0.21 0.20 0.22 0.22 0.22 0.23 0.20 0.24 0.26 0.28 0.28 0.20 0.19 0.22 0.22 0.18 0.19 0.26 0.33 0.31 0.39 0.44 0.47 0.59 0.56
1.09 1.06 1.05 1.04 1.04 1.01 0.97 0.94 0.91 0.87 0.86 0.85 0.83 0.81 0.81 0.73 0.61 0.51 0.52 0.53 0.43 0.37 0.16 0.26 0.25 0.30 0.25 0.21 0.22 0.22 0.23 0.22 0.17 0.20 0.24 0.16 0.21 0.18 0.16 0.20 0.30 0.32 0.41 0.40 0.44 0.50 0.63
1.03 1.02 0.99 0.96 0.93 0.94 0.92 0.90 0.87 0.84 0.84 0.82 0.81 0.79 0.79 0.68 0.71 0.61 0.59 0.51 0.41 0.27 0.17 0.26 0.30 0.29 0.25 0.23 0.28 0.33 0.23 0.24 0.27 0.20 0.25 0.23 0.23 0.21 0.18 0.19 0.25 0.33 0.38 0.37 0.39 0.43 0.42
0.94 0.93 0.90 0.87 0.85 0.85 0.84 0.81 0.79 0.79 0.80 0.79 0.77 0.75 0.72 0.76 0.57 0.64 0.62 0.47 0.31 0.23 0.31 0.26 0.28 0.33 0.32 0.28 0.25 0.31 0.27 0.24 0.20 0.15 0.18 0.22 0.21 0.21 0.21 0.18 0.21 0.24 0.29 0.27 0.26 0.30 0.31
0.79 0.77 0.78 0.80 0.79 0.76 0.74 0.73 0.71 0.69 0.70 0.70 0.70 0.69 0.69 0.70 0.73 0.67 0.54 0.38 0.27 0.30 0.30 0.33 0.31 0.31 0.29 0.34 0.30 0.27 0.28 0.24 0.23 0.22 0.20 0.18 0.16 0.20 0.22 0.16 0.18 0.19 0.24 0.24 0.21 0.24 0.31
0.70 0.71 0.71 0.71 0.69 0.68 0.69 0.70 0.69 0.68 0.66 0.62 0.58 0.55 0.55 0.60 0.69 0.67 0.50 0.29 0.28 0.33 0.37 0.33 0.32 0.27 0.28 0.30 0.30 0.28 0.28 0.28 0.24 0.24 0.19 0.18 0.19 0.27 0.24 0.24 0.17 0.17 0.19 0.26 0.27 0.32 0.31
0.63 0.63 0.64 0.64 0.65 0.66 0.66 0.66 0.67 0.64 0.61 0.56 0.47 0.44 0.44 0.59 0.59 0.58 0.42 0.32 0.32 0.38 0.37 0.37 0.30 0.31 0.27 0.29 0.29 0.29 0.28 0.32 0.32 0.30 0.27 0.24 0.21 0.27 0.27 0.25 0.22 0.16 0.21 0.19 0.24 0.23 0.23
0.61 0.61 0.60 0.61 0.63 0.64 0.64 0.65 0.65 0.64 0.60 0.54 0.44 0.35 0.36 0.48 0.49 0.48 0.32 0.32 0.38 0.41 0.39 0.34 0.31 0.28 0.29 0.30 0.32 0.31 0.29 0.31 0.31 0.34 0.34 0.29 0.25 0.25 0.30 0.24 0.21 0.19 0.16 0.18 0.22 0.24 0.24
0.59 0.59 0.59 0.59 0.60 0.61 0.61 0.62 0.63 0.65 0.61 0.52 0.40 0.26 0.42 0.57 0.37 0.40 0.32 0.39 0.44 0.41 0.43 0.38 0.36 0.31 0.28 0.30 0.31 0.31 0.32 0.32 0.36 0.33 0.31 0.35 0.29 0.23 0.26 0.32 0.29 0.24 0.17 0.16 0.16 0.20 0.22
0.62 0.62 0.63 0.62 0.62 0.63 0.63 0.64 0.65 0.65 0.66 0.53 0.35 0.31 0.32 0.42 0.26 0.26 0.30 0.32 0.39 0.40 0.43 0.43 0.38 0.34 0.31 0.28 0.28 0.31 0.32 0.34 0.36 0.34 0.30 0.31 0.31 0.24 0.24 0.30 0.34 0.24 0.22 0.20 0.17 0.20 0.24
0.60 0.60 0.61 0.64 0.66 0.66 0.65 0.66 0.66 0.68 0.68 0.59 0.41 0.25 0.28 0.35 0.34 0.29 0.26 0.25 0.25 0.32 0.35 0.42 0.45 0.43 0.36 0.30 0.30 0.29 0.32 0.35 0.36 0.36 0.40 0.38 0.34 0.30 0.24 0.26 0.33 0.30 0.24 0.23 0.20 0.15 0.16
0.57 0.59 0.62 0.65 0.67 0.70 0.70 0.68 0.68 0.69 0.69 0.61 0.44 0.32 0.36 0.29 0.30 0.41 0.47 0.41 0.35 0.36 0.40 0.48 0.46 0.46 0.41 0.33 0.31 0.28 0.31 0.33 0.36 0.38 0.38 0.39 0.34 0.36 0.33 0.35 0.38 0.35 0.31 0.27 0.23 0.19 0.17
0.59 0.60 0.62 0.64 0.66 0.70 0.72 0.73 0.72 0.72 0.68 0.57 0.41 0.37 0.46 0.36 0.32 0.34 0.36 0.37 0.35 0.37 0.39 0.39 0.44 0.49 0.50 0.44 0.48 0.41 0.39 0.34 0.32 0.38 0.38 0.38 0.34 0.41 0.39 0.39 0.38 0.40 0.38 0.29 0.25 0.24 0.21
0.60 0.61 0.61 0.64 0.66 0.69 0.72 0.72 0.75 0.75 0.71 0.55 0.56 0.55 0.49 0.38 0.34 0.28 0.23 0.29 0.38 0.39 0.42 0.44 0.42 0.47 0.50 0.55 0.60 0.57 0.53 0.46 0.43 0.39 0.38 0.37 0.35 0.38 0.35 0.41 0.41 0.36 0.38 0.37 0.33 0.25 0.24
0.60 0.62 0.63 0.63 0.67 0.68 0.72 0.71 0.73 0.75 0.75 0.66 0.61 0.58 0.42 0.35 0.34 0.33 0.32 0.27 0.31 0.39 0.33 0.41 0.46 0.50 0.54 0.64 0.65 0.62 0.53 0.48 0.44 0.42 0.45 0.40 0.35 0.38 0.36 0.43 0.35 0.36 0.44 0.41 0.37 0.36 0.31
0.61 0.62 0.63 0.63 0.65 0.69 0.72 0.72 0.73 0.75 0.77 0.71 0.69 0.59 0.45 0.31 0.36 0.36 0.34 0.32 0.36 0.40 0.36 0.33 0.40 0.46 0.50 0.53 0.51 0.47 0.43 0.42 0.41 0.46 0.49 0.48 0.44 0.41 0.39 0.45 0.47 0.49 0.49 0.54 0.49 0.42 0.46
0.62 0.67 0.67 0.65 0.64 0.70 0.75 0.77 0.76 0.74 0.75 0.70 0.67 0.72 0.57 0.39 0.31 0.39 0.39 0.39 0.33 0.36 0.34 0.39 0.49 0.47 0.46 0.43 0.47 0.40 0.39 0.43 0.38 0.44 0.53 0.56 0.55 0.50 0.51 0.46 0.39 0.55 0.77 0.76 0.69 0.47 0.74
0.66 0.67 0.69 0.68 0.65 0.68 0.74 0.74 0.72 0.72 0.72 0.68 0.65 0.75 0.59 0.43 0.45 0.43 0.34 0.36 0.45 0.42 0.38 0.44 0.52 0.43 0.45 0.31 0.35 0.40 0.42 0.52 0.42 0.40 0.43 0.48 0.51 0.50 0.50 0.44 0.47 0.70 0.81 0.83 0.51 0.53 0.82
0.67 0.66 0.68 0.68 0.68 0.70 0.73 0.69 0.70 0.70 0.74 0.69 0.62 0.75 0.61 0.46 0.44 0.46 0.46 0.42 0.43 0.46 0.40 0.48 0.49 0.51 0.42 0.29 0.33 0.40 0.43 0.47 0.46 0.47 0.43 0.43 0.46 0.49 0.54 0.51 0.46 0.85 0.92 0.80 0.85 0.94 0.87
0.66 0.65 0.66 0.68 0.68 0.67 0.67 0.69 0.69 0.71 0.71 0.69 0.57 0.71 0.75 0.54 0.44 0.52 0.55 0.54 0.49 0.49 0.46 0.49 0.49 0.52 0.56 0.45 0.48 0.52 0.43 0.52 0.48 0.39 0.46 0.39 0.44 0.41 0.49 0.50 0.69 0.92 0.94 1.01 0.99 0.91 0.90
Wind_Speed
15 15 16 16 16 16 16 17 16 16 16 16 17 17 18 18 18 18 18 18 17 17 17 16 15 15 12 11 16 14 11 10 11 16 21 22 21 19 18 16 15 14 15 12 6 5 7
17 17 17 17 17 17 18 18 18 17 18 18 18 18 18 18 19 19 19 19 19 19 18 17 15 13 11 15 10 10 13 12 14 16 20 22 20 19 18 18 18 15 14 13 9 9 9
18 18 18 18 19 19 19 19 19 19 19 19 19 19 19 19 19 20 20 21 21 20 19 17 15 13 14 15 10 9 11 14 14 16 19 22 22 19 19 18 18 17 17 12 13 11 9
19 19 19 19 20 20 20 20 20 20 21 21 21 20 21 21 21 21 21 21 20 20 18 17 15 14 15 14 14 15 13 15 17 18 19 20 22 22 20 18 19 19 18 17 17 14 11
20 20 21 21 21 22 22 22 22 22 22 22 22 22 22 22 22 22 22 22 20 18 17 15 14 14 17 12 14 14 15 16 17 19 20 21 21 24 22 19 19 21 19 19 16 15 13
22 22 23 23 23 23 23 23 23 23 23 23 23 23 23 23 23 23 23 21 17 15 15 15 16 14 16 14 12 12 12 14 15 18 21 23 22 23 25 22 19 20 20 19 18 17 17
25 25 25 25 25 26 26 26 26 26 25 25 25 25 25 25 24 24 20 15 13 13 14 17 12 15 13 12 15 11 10 13 15 17 21 24 25 27 28 27 23 20 19 19 17 14 18
27 27 28 28 28 29 29 28 28 28 28 27 27 27 27 27 26 24 19 16 17 18 21 23 25 25 22 13 12 16 14 14 16 18 20 23 29 29 28 29 27 25 24 23 17 17 21
30 30 31 30 30 30 30 30 29 29 29 29 29 28 28 28 27 21 21 23 21 21 22 24 27 26 27 24 23 20 20 19 18 21 21 24 24 27 30 31 30 28 26 22 20 18 22
33 34 34 33 33 32 33 32 32 31 31 31 30 30 29 29 22 21 20 18 19 21 21 22 23 24 25 26 29 26 25 24 22 23 24 25 25 26 32 34 32 31 27 25 22 16 20
35 35 35 35 35 35 35 35 35 35 34 34 33 33 31 29 28 24 23 22 21 20 19 12 18 14 17 26 14 26 29 28 28 26 24 24 27 29 30 35 34 31 28 27 26 24 21
36 36 36 36 36 36 36 36 37 37 36 36 36 36 34 30 27 29 27 25 21 20 23 18 16 17 20 24 24 15 24 27 26 29 28 26 24 29 30 29 35 31 29 28 27 26 26
37 37 38 38 38 37 38 38 37 37 37 38 37 38 37 34 28 25 25 24 22 26 20 23 21 21 25 24 29 20 23 27 27 27 28 28 28 27 28 30 31 36 32 27 27 28 27
38 39 39 39 39 39 40 40 39 39 39 40 40 40 35 34 32 31 28 26 32 28 34 21 21 25 27 28 30 30 27 28 31 29 24 26 27 29 28 32 31 33 36 31 30 28 27
40 41 41 42 43 43 42 42 42 42 41 42 42 37 36 35 34 32 31 35 33 35 29 27 31 28 30 31 31 31 33 31 32 34 31 25 30 25 33 29 33 32 37 36 34 30 28
44 45 45 46 46 45 45 45 45 45 44 44 41 40 36 35 34 33 36 46 37 39 34 32 34 33 35 34 35 35 34 33 33 34 34 31 26 28 28 32 35 37 29 33 36 36 35
46 47 48 48 48 48 48 47 47 47 46 46 41 37 35 29 30 35 42 44 45 47 43 41 39 38 39 36 37 38 38 35 35 34 34 34 32 28 30 35 34 30 34 35 33 36 31
49 50 50 50 50 50 49 49 48 48 46 43 41 38 30 31 36 38 43 46 46 47 45 43 44 45 42 38 39 38 40 39 36 31 35 36 30 32 34 32 33 37 37 37 32 34 35
51 51 52 51 50 50 49 48 47 46 44 42 41 43 40 41 42 41 44 48 47 47 47 48 47 44 43 44 42 41 39 39 37 39 37 34 36 30 34 33 34 39 37 34 37 36 33
52 53 52 52 51 50 48 47 46 44 42 40 38 36 35 36 42 44 44 47 46 45 45 45 43 45 45 45 46 43 40 37 35 35 26 31 34 40 34 34 29 34 38 37 37 33 37
52 52 52 51 50 49 47 45 42 41 38 36 33 33 33 34 34 27 34 38 40 41 40 36 37 39 33 41 44 45 43 39 38 39 34 35 35 35 39 37 32 33 36 38 37 39 36
52 52 51 50 48 46 44 40 38 36 32 30 28 27 26 31 33 34 30 30 35 39 36 34 35 39 34 35 27 32 31 39 40 41 36 41 37 34 35 35 35 32 35 36 38 39 39
52 51 49 47 44 41 38 34 31 28 24 21 21 24 22 23 24 25 29 31 23 25 35 34 34 36 37 33 34 36 39 41 40 39 40 37 38 35 36 35 33 34 37 32 33 33 35
50 49 45 42 38 33 29 26 23 22 21 19 18 17 17 18 20 20 23 26 28 31 29 30 31 30 37 33 37 36 38 41 42 42 39 40 40 36 34 31 35 35 31 34 31 28 30
45 42 39 35 30 25 22 20 19 19 18 19 18 16 16 17 18 20 22 21 23 25 29 31 30 31 27 27 27 29 33 37 40 41 36 34 38 35 33 32 30 31 28 25 24 28 28
38 35 31 26 23 21 18 18 17 17 17 17 18 18 16 15 17 20 18 19 19 21 19 24 23 25 23 23 23 24 27 26 36 37 34 31 29 33 32 33 36 32 20 22 20 24 17
34 30 27 24 21 18 17 17 16 16 16 15 15 16 16 16 18 21 20 18 15 14 14 18 17 20 23 23 25 23 26 30 27 35 33 32 29 32 30 32 28 18 21 23 24 19 16
29 26 24 22 19 17 17 16 14 14 13 13 13 13 16 17 19 21 22 20 19 15 13 10 10 18 21 26 25 24 25 27 27 30 30 31 30 29 28 26 27 19 21 21 19 20 17
25 23 22 19 18 16 15 15 13 11 11 13 13 12 14 17 17 20 20 21 21 20 17 14 7 10 11 17 20 21 24 23 23 25 32 32 34 30 29 30 24 13 19 18 18 16 13
Wind_Direction
348 346 344 342 341 338 336 334 331 328 325 322 320 317 314 311 309 306 304 302 302 302 301 300 299 297 293 274 257 254 245 237 228 212 211 213 215 218 224 225 233 230 215 245 239 222 216
342 340 338 336 335 333 331 330 328 326 323 320 318 317 315 313 309 306 302 300 297 296 296 295 295 294 282 273 272 238 243 236 225 213 212 214 216 217 227 229 235 236 237 247 247 234 222
337 335 333 331 330 328 327 324 324 323 321 320 317 315 314 313 311 308 305 300 295 291 290 289 286 281 275 266 267 248 245 229 222 215 214 215 218 221 225 235 234 243 249 237 241 243 221
337 334 331 329 328 327 325 323 320 319 318 318 316 314 313 312 311 309 306 302 296 289 285 281 278 273 274 273 262 253 244 235 229 221 220 217 218 225 230 232 240 241 241 242 231 221 214
333 332 330 327 325 324 323 321 319 317 315 314 313 312 312 311 309 308 307 301 294 287 279 275 272 270 276 270 248 245 238 234 228 226 222 220 219 220 224 232 235 232 236 232 243 205 197
327 326 326 324 322 320 320 318 316 315 314 313 311 310 310 309 308 307 305 298 290 284 275 268 266 273 266 252 238 238 233 227 228 222 221 218 220 221 220 222 226 226 226 228 218 218 208
323 321 320 319 318 317 315 314 313 311 309 309 308 306 306 306 305 305 302 297 289 281 268 260 259 254 279 244 240 226 226 223 224 221 219 217 219 219 218 219 225 233 229 227 229 222 218
318 317 317 316 313 313 312 310 309 308 306 305 305 305 303 301 300 297 288 283 293 287 282 266 260 256 250 247 236 229 232 225 222 222 220 221 227 224 221 220 226 234 240 239 231 222 216
315 314 313 312 312 311 310 309 308 306 305 303 302 302 302 300 297 286 281 282 280 286 280 273 255 248 242 242 246 239 231 227 230 228 223 230 228 225 222 221 222 230 234 237 241 222 214
312 311 309 309 308 308 306 305 304 303 302 301 300 299 300 300 284 287 281 283 282 285 277 271 250 247 237 237 244 238 234 231 234 234 234 236 233 223 225 224 222 228 227 237 247 206 225
311 309 308 307 305 304 304 302 301 300 299 298 296 295 295 291 282 275 277 282 282 275 274 271 231 249 234 225 252 231 229 231 235 233 235 235 231 230 223 226 223 230 228 234 240 245 223
310 309 308 307 306 304 304 303 301 299 298 296 294 292 291 283 273 272 273 274 268 259 259 257 239 237 225 227 231 228 218 226 233 233 236 240 235 231 232 225 227 227 232 238 238 240 243
310 309 308 307 306 304 303 302 302 300 298 296 294 291 286 276 268 273 270 260 255 250 259 253 236 239 233 226 226 224 217 220 223 223 232 234 236 233 228 230 223 226 225 231 233 232 241
310 309 308 306 305 304 303 301 300 300 298 298 295 292 282 272 266 262 259 252 249 255 243 260 252 237 236 229 228 229 226 228 224 225 231 232 232 229 224 228 225 222 225 227 230 232 240
309 308 307 305 304 303 301 299 298 298 298 298 296 289 283 271 260 256 252 247 252 248 258 250 252 251 238 235 234 229 226 231 228 225 231 233 234 235 228 224 223 223 226 228 235 239 242
308 307 305 304 303 301 300 299 297 296 296 296 292 288 281 271 258 250 250 249 253 255 258 256 256 253 247 234 232 230 229 229 230 230 228 237 248 232 226 226 228 228 226 225 230 235 239
308 307 305 303 302 300 299 298 297 296 296 295 289 285 281 272 253 254 252 255 255 256 258 258 258 255 250 241 239 233 235 236 231 230 228 230 238 239 226 222 226 223 228 230 232 234 239
308 307 306 304 302 300 299 298 296 296 296 292 287 279 281 269 263 260 258 257 258 257 256 255 250 250 250 248 243 243 235 235 232 233 228 227 232 236 238 229 226 226 226 228 232 232 233
309 307 306 304 302 301 299 298 297 295 294 292 285 281 273 269 267 265 264 262 259 257 253 251 251 250 245 244 245 245 245 239 236 231 231 228 226 231 234 236 227 223 227 229 233 238 241
310 308 306 303 301 300 299 297 295 294 291 289 285 282 278 267 264 263 265 263 261 256 254 251 250 250 246 245 239 242 242 242 232 226 229 221 231 226 232 232 228 224 226 228 231 233 237
312 310 307 304 302 300 298 296 294 292 289 286 281 278 279 274 267 265 271 270 263 260 251 255 249 243 249 243 238 238 237 240 235 229 228 225 231 233 228 236 229 231 228 228 229 235 236
314 313 310 307 303 301 297 294 292 290 287 281 278 279 278 275 268 264 262 262 261 256 248 253 246 241 245 241 241 237 240 236 233 228 228 223 228 231 234 229 232 234 232 229 230 233 238
316 315 312 310 306 302 297 292 288 284 280 280 277 275 273 270 270 268 263 260 277 268 246 248 247 241 239 239 242 241 238 236 236 230 231 221 224 225 232 231 231 232 233 233 234 234 234
317 316 313 311 308 303 298 293 284 279 273 273 278 276 270 266 271 270 279 267 264 262 258 249 247 236 234 246 242 241 237 235 229 225 228 220 220 223 228 226 229 233 231 235 241 240 236
319 319 317 313 310 305 299 295 287 280 275 269 272 269 263 267 263 270 282 281 273 265 257 242 246 238 239 238 234 238 232 229 221 220 221 223 216 219 222 226 232 231 228 229 227 235 244
323 324 324 322 316 310 301 295 291 286 277 271 271 262 262 265 263 265 283 282 268 268 267 245 247 238 225 227 221 224 222 224 214 212 214 218 213 215 215 222 220 225 216 219 231 238 244
325 324 324 323 317 313 307 301 294 289 281 273 272 261 257 265 270 268 271 275 268 264 253 258 243 229 223 225 217 219 220 216 219 211 205 210 213 215 217 220 228 220 219 224 221 224 238
332 331 327 325 321 315 310 307 300 293 282 276 276 263 260 262 270 274 267 267 251 241 241 231 257 227 226 222 219 212 217 211 217 221 211 211 212 215 216 216 222 199 199 219 216 226 238
341 341 339 336 332 327 316 311 307 297 287 283 275 271 266 262 266 281 267 262 252 240 238 230 224 213 216 214 212 214 214 212 222 223 221 220 220 224 224 225 227 216 219 225 225 234 248